Location: Unspecified
(0.0000°N, 0.0000°E)
Time: 09:42:52
(UTC+00:00)

deb Explorer IX - All Passes

Search period start: 02 April 2015 00:00
Search period end: 12 April 2015 00:00
Orbit: 551 x 1161 km, 38.8° (Epoch: 01 April)

Date Brightness Start Highest point End Pass type
(mag) Time Alt. Az. Time Alt. Az. Time Alt. Az.
02 Apr - 06:41:58 10° S 06:46:46 19° SE 06:51:35 10° ESE daylight
02 Apr - 08:28:05 10° SW 08:35:27 84° SE 08:41:50 10° NE daylight
02 Apr - 10:19:00 10° W 10:23:22 18° NW 10:27:07 10° N daylight
02 Apr - 19:29:33 10° NNW 19:33:11 27° NE 19:37:17 10° E visible
02 Apr - 21:16:32 10° WNW 21:20:44 32° SW 21:25:32 10° SSE visible
03 Apr - 06:28:49 10° S 06:34:17 22° SE 06:39:40 10° E daylight
03 Apr - 08:15:24 10° SW 08:22:51 83° NW 08:29:21 10° NE daylight
03 Apr - 10:07:02 10° WNW 10:10:51 15° NW 10:14:05 10° N daylight
03 Apr - 19:16:53 10° NNW 19:20:42 33° NE 19:24:59 10° ESE visible
03 Apr - 21:04:26 10° W 21:08:18 25° SW 21:12:35 10° SSE visible
04 Apr - 06:15:42 10° SSW 06:21:42 26° SE 06:27:35 10° E daylight
04 Apr - 08:02:42 10° SW 08:10:11 72° NW 08:16:45 10° NE daylight
04 Apr - 09:55:13 10° WNW 09:58:17 13° NW 10:00:50 10° NNW daylight
04 Apr - 19:04:12 10° NNW 19:08:10 41° NE 19:12:34 10° ESE visible
04 Apr - 20:52:24 10° W 20:55:49 20° SW 20:59:30 10° S visible
05 Apr - 06:02:38 10° SSW 06:09:03 30° SE 06:15:20 10° E daylight
05 Apr - 07:50:01 10° WSW 07:57:27 61° NW 08:04:04 10° NE daylight
05 Apr - 09:43:48 10° NW 09:45:41 11° NW 09:47:04 10° NNW daylight
05 Apr - 18:51:32 10° NW 18:55:34 53° NE 19:00:01 10° ESE visible
05 Apr - 20:40:29 10° WSW 20:43:19 16° SW 20:46:13 10° S visible
06 Apr - 05:49:33 10° SSW 05:56:20 35° SE 06:02:56 10° ENE daylight
06 Apr - 07:37:18 10° WSW 07:44:39 53° NW 07:51:17 10° NNE daylight
06 Apr - 18:38:51 10° NW 18:42:57 69° NE 18:47:24 10° SE visible
06 Apr - 20:28:49 10° WSW 20:30:47 12° SSW 20:32:36 10° S visible
07 Apr - 05:36:30 10° SSW 05:43:32 41° SE 05:50:25 10° ENE visible
07 Apr - 07:24:36 10° WSW 07:31:49 45° NW 07:38:24 10° NNE daylight
07 Apr - 18:26:10 10° NW 18:30:16 89° NNE 18:34:40 10° SE visible
08 Apr - 05:23:25 10° SSW 05:30:39 47° SE 05:37:47 10° ENE visible
08 Apr - 07:11:53 10° WSW 07:18:55 39° NW 07:25:24 10° NNE daylight
08 Apr - 18:13:29 10° NW 18:17:33 70° SW 18:21:51 10° SE daylight
09 Apr - 03:26:45 10° SSE 03:28:54 12° SE 03:31:33 10° SE visible
09 Apr - 05:10:21 10° SW 05:17:43 55° SE 05:25:02 10° ENE visible
09 Apr - 06:59:11 10° WSW 07:06:00 34° NW 07:12:19 10° NNE daylight
09 Apr - 16:15:31 10° NNE 16:17:18 13° NE 16:19:14 10° ENE daylight
09 Apr - 18:00:47 10° WNW 18:04:47 53° SW 18:08:56 10° SE daylight
10 Apr - 03:12:48 10° S 03:16:03 14° SE 03:19:47 10° ESE visible
10 Apr - 04:57:16 10° SW 05:04:42 64° SE 05:12:10 10° ENE visible
10 Apr - 06:46:30 10° W 06:53:01 30° NW 06:59:07 10° NNE daylight
10 Apr - 16:01:55 10° N 16:04:31 16° NE 16:07:11 10° ENE daylight
10 Apr - 17:48:05 10° WNW 17:51:58 40° SW 17:55:56 10° SSE daylight
11 Apr - 02:59:08 10° S 03:03:07 16° SE 03:07:36 10° ESE visible
11 Apr - 04:44:11 10° SW 04:51:38 74° SE 04:59:13 10° NE visible
11 Apr - 06:33:50 10° W 06:40:01 26° NW 06:45:49 10° NNE daylight
11 Apr - 15:48:29 10° N 15:51:41 20° NE 15:54:50 10° E daylight
11 Apr - 17:35:23 10° WNW 17:39:06 31° SW 17:42:48 10° SSE daylight
